Вернуться в каталог

ONEWEB-0678

АктивенСвязьPO
NORAD 56714·PAYLOAD·🇬🇧 United Kingdom

Запущен May 20, 2023 с Vandenberg Space Force Base

Loading…

Ближайшие Пролёты (ближайшие 24 часа)

TLE

СвежийSource: CelesTrak SupGP

Эпоха: Sep 14, 2026, 21:54 UTC

1 56714C 23068E   26257.91266620  .00000639  00000+0  16983-2 0  2579
2 56714  87.8987 241.3081 0002179  80.0931 303.8817 13.15546870    12

Отслеживайте ONEWEB-0678 в реальном времени с AllMySat

Download on the App Store